When you browse on this site, cookies collect data to enhance your experience and personalize the content and advertising you see.
Visit our Privacy Policy to learn more. By continuing to use the site, you agree to this use of cookies and data.
  • In United Kingdom
  • List of Countries
  • For 7 days
  • Water Temperature
  • Satellite Maps
  • Weather Map
  • Weather Widgets
  • user-avatar
    Login

    Hourly Weather Middle River

    Today, 23 April, Tuesday

    Time Temperature Precipitation Wind Pressure Humidity
    00:00 +15°C° 0 mm 2 mps 763 mmHg 72%
    01:00 +14°C° 0 mm 2 mps 763 mmHg 73%
    02:00 +14°C° 0 mm 2 mps 763 mmHg 74%
    03:00 +14°C° 0 mm 2 mps 763 mmHg 75%
    04:00 +13°C° 0 mm 2 mps 763 mmHg 76%
    05:00 +14°C° 0 mm 2 mps 763 mmHg 74%
    06:00 +15°C° 0 mm 1 mps 763 mmHg 72%
    07:00 +15°C° 0 mm 1 mps 763 mmHg 70%
    08:00 +19°C° 0 mm 1 mps 762 mmHg 63%
    09:00 +21°C° 0 mm 1 mps 762 mmHg 56%
    10:00 +23°C° 0 mm 1 mps 762 mmHg 49%
    11:00 +24°C° 0 mm 2 mps 761 mmHg 46%
    12:00 +25°C° 0 mm 2 mps 760 mmHg 43%
    13:00 +27°C° 0 mm 3 mps 760 mmHg 39%
    14:00 +27°C° 0 mm 3 mps 759 mmHg 39%
    15:00 +27°C° 0 mm 3 mps 758 mmHg 39%
    16:00 +27°C° 0 mm 4 mps 758 mmHg 39%
    17:00 +26°C° 0 mm 4 mps 757 mmHg 44%
    18:00 +23°C° 0 mm 4 mps 757 mmHg 49%
    19:00 +22°C° 0 mm 5 mps 757 mmHg 54%
    20:00 +21°C° 0.3 mm 4 mps 757 mmHg 60%
    21:00 +20°C° 0.3 mm 4 mps 756 mmHg 66%
    22:00 +20°C° 0.3 mm 3 mps 756 mmHg 72%
    23:00 +19°C° 0.1 mm 3 mps 756 mmHg 74%

    Tomorrow, 24 April, Wednesday

    Time Temperature Precipitation Wind Pressure Humidity
    00:00 +19°C° 0.1 mm 3 mps 756 mmHg 77%
    01:00 +19°C° 0.1 mm 3 mps 756 mmHg 79%
    02:00 +19°C° 0.2 mm 3 mps 756 mmHg 80%
    03:00 +18°C° 0.2 mm 4 mps 756 mmHg 80%
    04:00 +17°C° 0.2 mm 4 mps 756 mmHg 81%
    05:00 +15°C° 0 mm 4 mps 757 mmHg 77%
    06:00 +14°C° 0 mm 5 mps 757 mmHg 74%
    07:00 +13°C° 0 mm 5 mps 758 mmHg 71%
    08:00 +14°C° 0 mm 5 mps 758 mmHg 63%
    09:00 +16°C° 0 mm 5 mps 758 mmHg 55%
    10:00 +17°C° 0 mm 5 mps 758 mmHg 47%
    11:00 +19°C° 0 mm 5 mps 758 mmHg 45%
    12:00 +20°C° 0 mm 5 mps 758 mmHg 42%
    13:00 +21°C° 0 mm 5 mps 757 mmHg 39%
    14:00 +21°C° 0 mm 5 mps 757 mmHg 39%
    15:00 +21°C° 0 mm 5 mps 757 mmHg 38%
    16:00 +22°C° 0 mm 5 mps 756 mmHg 38%
    17:00 +20°C° 0 mm 4 mps 757 mmHg 42%
    18:00 +19°C° 0 mm 4 mps 757 mmHg 45%
    19:00 +18°C° 0 mm 3 mps 758 mmHg 48%
    20:00 +17°C° 0 mm 3 mps 758 mmHg 49%
    21:00 +16°C° 0 mm 3 mps 759 mmHg 50%
    22:00 +14°C° 0 mm 3 mps 760 mmHg 51%
    23:00 +13°C° 0 mm 3 mps 760 mmHg 53%

    Day after tomorrow, 25 April, Thursday

    Time Temperature Precipitation Wind Pressure Humidity
    00:00 +13°C° 0 mm 3 mps 760 mmHg 54%
    01:00 +12°C° 0 mm 3 mps 760 mmHg 55%
    02:00 +12°C° 0 mm 3 mps 760 mmHg 57%
    03:00 +12°C° 0 mm 2 mps 760 mmHg 59%
    04:00 +10°C° 0 mm 2 mps 760 mmHg 61%
    05:00 +12°C° 0 mm 2 mps 760 mmHg 60%
    06:00 +12°C° 0 mm 1 mps 761 mmHg 59%
    07:00 +13°C° 0 mm 1 mps 761 mmHg 58%
    08:00 +15°C° 0 mm 1 mps 761 mmHg 51%
    09:00 +18°C° 0 mm 1 mps 761 mmHg 44%
    10:00 +19°C° 0 mm 0 mps 761 mmHg 38%
    11:00 +21°C° 0 mm 1 mps 760 mmHg 37%
    12:00 +22°C° 0 mm 1 mps 760 mmHg 35%
    13:00 +23°C° 0 mm 2 mps 759 mmHg 34%
    14:00 +23°C° 0 mm 2 mps 759 mmHg 37%
    15:00 +22°C° 0 mm 3 mps 758 mmHg 40%
    16:00 +22°C° 0 mm 3 mps 758 mmHg 43%
    17:00 +20°C° 0.5 mm 3 mps 758 mmHg 51%
    18:00 +19°C° 0.5 mm 2 mps 758 mmHg 60%
    19:00 +17°C° 0.5 mm 2 mps 758 mmHg 68%
    20:00 +17°C° 0.3 mm 3 mps 758 mmHg 69%
    21:00 +17°C° 0.3 mm 3 mps 757 mmHg 70%
    22:00 +16°C° 0.3 mm 3 mps 757 mmHg 70%
    23:00 +16°C° 0 mm 3 mps 757 mmHg 73%

    26 April, Friday

    Time Temperature Precipitation Wind Pressure Humidity
    00:00 +16°C° 0 mm 3 mps 756 mmHg 77%
    01:00 +14°C° 0 mm 3 mps 755 mmHg 80%
    02:00 +16°C° 0.3 mm 3 mps 755 mmHg 84%
    03:00 +16°C° 0.3 mm 3 mps 754 mmHg 89%
    04:00 +16°C° 0.3 mm 3 mps 753 mmHg 93%
    05:00 +17°C° 0.3 mm 3 mps 753 mmHg 93%
    06:00 +17°C° 0.3 mm 3 mps 753 mmHg 93%
    07:00 +18°C° 0.3 mm 3 mps 752 mmHg 93%
    08:00 +19°C° 0.2 mm 4 mps 752 mmHg 85%
    09:00 +20°C° 0.2 mm 5 mps 752 mmHg 78%
    10:00 +21°C° 0.2 mm 6 mps 751 mmHg 71%
    11:00 +20°C° 1 mm 6 mps 752 mmHg 74%
    12:00 +19°C° 1 mm 6 mps 752 mmHg 78%
    13:00 +17°C° 1 mm 6 mps 752 mmHg 81%
    14:00 +17°C° 0.1 mm 6 mps 752 mmHg 73%
    15:00 +19°C° 0.1 mm 6 mps 753 mmHg 65%
    16:00 +20°C° 0.1 mm 7 mps 753 mmHg 58%
    17:00 +19°C° 0 mm 5 mps 754 mmHg 56%
    18:00 +18°C° 0 mm 4 mps 755 mmHg 55%
    19:00 +17°C° 0 mm 3 mps 756 mmHg 54%
    20:00 +15°C° 0 mm 4 mps 757 mmHg 53%
    21:00 +15°C° 0 mm 4 mps 758 mmHg 52%
    22:00 +14°C° 0 mm 4 mps 759 mmHg 52%
    23:00 +13°C° 0 mm 4 mps 759 mmHg 52%

    27 April, Saturday

    Time Temperature Precipitation Wind Pressure Humidity
    00:00 +12°C° 0 mm 4 mps 760 mmHg 51%
    01:00 +11°C° 0 mm 4 mps 760 mmHg 51%
    02:00 +10°C° 0 mm 4 mps 761 mmHg 49%
    03:00 +8°C° 0 mm 4 mps 761 mmHg 47%
    04:00 +7°C° 0 mm 4 mps 762 mmHg 45%
    05:00 +8°C° 0 mm 4 mps 762 mmHg 45%
    06:00 +8°C° 0 mm 4 mps 763 mmHg 46%
    07:00 +8°C° 0 mm 4 mps 763 mmHg 46%
    08:00 +11°C° 0 mm 4 mps 764 mmHg 43%
    09:00 +12°C° 0 mm 4 mps 764 mmHg 40%
    10:00 +13°C° 0 mm 4 mps 764 mmHg 37%
    11:00 +14°C° 0 mm 3 mps 764 mmHg 34%
    12:00 +17°C° 0 mm 3 mps 763 mmHg 31%
    13:00 +18°C° 0 mm 2 mps 762 mmHg 29%
    14:00 +18°C° 0 mm 2 mps 762 mmHg 29%
    15:00 +18°C° 0 mm 2 mps 762 mmHg 30%
    16:00 +20°C° 0 mm 1 mps 762 mmHg 31%
    17:00 +17°C° 0 mm 2 mps 762 mmHg 34%
    18:00 +16°C° 0 mm 2 mps 762 mmHg 36%
    19:00 +15°C° 0 mm 2 mps 762 mmHg 39%
    20:00 +14°C° 0 mm 3 mps 762 mmHg 40%
    21:00 +13°C° 0 mm 3 mps 762 mmHg 41%
    22:00 +13°C° 0 mm 4 mps 763 mmHg 41%
    23:00 +13°C° 0 mm 4 mps 762 mmHg 43%

    28 April, Sunday

    Time Temperature Precipitation Wind Pressure Humidity
    00:00 +13°C° 0 mm 5 mps 762 mmHg 45%
    01:00 +13°C° 0 mm 5 mps 762 mmHg 46%
    02:00 +13°C° 0 mm 5 mps 762 mmHg 47%
    03:00 +13°C° 0 mm 6 mps 761 mmHg 48%
    04:00 +11°C° 0 mm 6 mps 761 mmHg 48%
    05:00 +13°C° 0 mm 6 mps 761 mmHg 50%
    06:00 +12°C° 0 mm 7 mps 761 mmHg 51%
    07:00 +12°C° 0 mm 7 mps 761 mmHg 52%
    08:00 +15°C° 0 mm 7 mps 761 mmHg 52%
    09:00 +17°C° 0 mm 7 mps 760 mmHg 52%
    10:00 +19°C° 0 mm 6 mps 760 mmHg 52%
    11:00 +21°C° 0 mm 6 mps 760 mmHg 50%
    12:00 +23°C° 0 mm 6 mps 759 mmHg 48%
    13:00 +26°C° 0 mm 5 mps 759 mmHg 46%
    14:00 +26°C° 0 mm 5 mps 759 mmHg 48%
    15:00 +26°C° 0 mm 4 mps 759 mmHg 49%
    16:00 +26°C° 0 mm 4 mps 759 mmHg 50%
    17:00 +25°C° 0 mm 3 mps 760 mmHg 53%
    18:00 +24°C° 0 mm 3 mps 761 mmHg 56%
    19:00 +21°C° 0 mm 3 mps 761 mmHg 58%
    20:00 +20°C° 0 mm 3 mps 762 mmHg 56%
    21:00 +18°C° 0 mm 4 mps 763 mmHg 53%
    22:00 +17°C° 0 mm 4 mps 764 mmHg 51%
    23:00 +15°C° 0 mm 4 mps 764 mmHg 54%
    Show more